Wind_Speed
82 82 82 80 74 68 67 69 71 69 70 70 72 76 71 68 65 69 68 61 69 74 70 68 66 70 72 74 73 66 69 72 73 73 76 77 81 81 78 81 83 86 88 85 84 89 92
84 81 83 81 80 81 79 75 74 71 71 72 74 76 77 69 72 69 72 68 62 64 62 62 69 71 74 74 72 69 69 75 74 73 77 81 82 85 84 87 91 89 89 87 89 91 85
86 83 83 85 83 85 89 83 77 75 73 75 78 81 84 76 74 65 70 76 76 70 67 68 70 70 71 70 69 74 74 77 75 79 81 80 83 84 80 81 90 92 92 88 86 80 59
90 87 86 85 81 82 80 80 81 81 79 80 86 89 92 83 74 73 70 75 77 71 77 77 77 75 81 73 77 77 77 77 78 78 83 83 86 88 86 83 88 90 87 91 88 72 56
97 91 86 88 87 85 84 85 91 90 85 90 95 95 91 88 69 73 76 84 79 79 78 70 68 74 81 81 82 81 79 79 79 80 82 86 91 87 92 94 92 92 86 73 64 60 51
97 97 90 93 93 94 93 92 92 92 94 93 98 94 95 79 70 74 76 78 80 76 78 80 78 77 79 81 80 82 80 78 82 77 74 81 80 78 85 88 82 82 71 59 51 55 49
101 102 99 96 91 92 93 93 91 93 96 102 98 100 88 74 73 73 77 80 78 80 79 75 73 77 77 77 77 79 78 72 74 77 75 71 72 76 75 77 68 63 57 49 45 50 38
109 106 102 103 98 95 95 93 99 100 105 104 100 100 80 70 73 75 74 78 78 77 79 82 86 81 81 79 85 82 80 72 70 68 69 71 70 75 74 73 63 52 49 47 45 44 40
110 109 106 105 95 98 96 101 102 104 107 103 104 88 77 75 78 76 74 75 77 79 76 85 82 85 87 82 80 79 79 74 71 69 69 70 76 76 71 61 53 48 49 48 42 42 41
113 109 114 104 104 102 104 105 105 109 106 105 95 80 73 77 75 76 78 78 81 81 79 81 85 85 84 80 81 79 75 72 70 72 72 74 74 71 63 51 42 46 50 40 41 44 45
106 105 106 110 107 107 105 103 106 101 105 94 81 78 77 75 77 78 79 79 79 80 76 79 75 81 84 82 79 77 76 77 78 79 78 78 75 65 47 44 39 41 37 35 43 45 51
107 108 109 108 111 110 104 107 104 104 91 82 75 77 78 78 84 80 81 81 80 78 75 77 79 80 81 79 78 80 82 81 79 80 78 76 67 44 38 37 29 29 29 39 43 45 49
106 109 110 108 108 104 106 102 102 92 84 78 75 75 77 81 86 87 90 88 84 81 85 88 84 85 88 88 85 85 83 85 83 82 79 62 48 36 34 32 31 34 37 45 49 49 51
109 108 109 108 104 102 100 96 87 83 80 79 74 73 75 76 78 80 89 93 90 92 98 100 93 91 92 94 93 89 89 88 83 75 61 54 35 36 32 31 34 34 42 47 51 52 52
105 105 105 102 101 95 90 86 83 80 77 75 75 72 79 72 72 73 78 79 82 89 95 105 99 94 92 96 92 86 82 75 67 61 54 50 36 38 34 39 43 46 44 46 51 57 49
107 103 101 98 93 87 84 82 80 80 79 77 76 75 78 76 74 72 69 66 69 80 93 93 90 86 85 88 85 74 69 62 60 57 55 47 40 40 38 46 50 50 51 49 52 57 50
97 95 91 88 86 85 83 81 80 80 78 75 72 74 73 73 71 70 68 67 71 77 83 83 84 78 84 81 80 77 69 64 63 56 50 45 40 41 44 51 53 50 56 52 51 59 50
90 88 87 86 83 82 82 81 79 74 70 68 66 71 70 71 68 66 64 62 66 72 79 72 73 72 75 73 75 72 69 67 67 64 56 48 44 46 50 54 54 56 56 53 56 59 53
84 81 82 82 81 81 79 75 72 69 66 64 62 68 67 68 64 63 62 61 62 68 73 63 66 64 67 69 67 69 61 59 58 57 57 55 46 50 55 61 57 62 60 56 53 54 55
80 81 80 79 79 76 73 71 69 65 62 62 62 66 67 60 59 57 56 56 58 63 66 57 57 60 65 67 61 64 59 55 55 54 49 51 50 56 58 67 60 65 65 59 61 53 50
78 77 75 74 73 71 70 68 66 62 60 59 60 61 60 52 51 47 46 46 52 57 59 55 55 57 63 63 59 57 51 51 48 49 48 49 54 61 60 71 67 59 67 66 55 61 52
73 71 70 70 68 67 66 65 63 60 58 56 52 52 49 50 46 43 41 42 51 51 52 51 50 55 59 55 50 50 43 44 44 45 49 54 59 65 63 74 73 66 63 68 60 60 59
67 68 68 66 65 64 62 59 58 55 54 48 46 45 46 46 42 36 40 40 48 43 44 43 46 51 53 52 46 46 44 43 47 52 53 57 61 64 65 76 79 73 72 69 67 67 60
65 65 64 62 61 59 56 55 53 49 47 45 41 42 41 40 37 31 38 39 43 39 40 41 43 40 44 42 44 42 44 45 48 52 53 56 63 65 68 74 78 78 73 73 67 66 60
62 62 61 57 55 54 53 50 47 44 42 41 36 37 35 34 32 30 36 36 31 31 34 34 37 42 41 42 43 42 43 42 46 49 51 56 62 66 72 78 77 79 76 71 69 74 66
60 60 55 52 52 50 48 45 42 39 37 36 32 32 29 28 28 29 29 28 30 30 31 32 36 36 38 39 41 43 44 46 46 48 51 55 61 66 74 78 79 79 73 76 73 66 64
58 53 51 49 47 45 43 40 38 35 32 28 27 25 24 20 23 24 23 25 26 26 29 34 36 35 36 34 37 40 40 41 46 50 51 56 62 67 75 82 79 80 77 77 79 74 68
52 47 47 44 42 40 37 36 34 30 25 23 23 23 20 20 21 20 23 25 28 30 31 32 32 34 37 38 40 39 41 42 47 48 50 55 59 68 70 83 78 82 80 78 80 79 72
45 45 43 41 38 35 33 33 29 24 21 21 20 20 18 18 19 21 23 27 28 27 28 30 32 32 34 37 40 43 42 43 44 47 47 52 60 64 70 84 86 85 83 79 79 79 77
Wind_Direction
296 291 288 287 280 283 290 291 292 295 296 303 301 300 298 295 291 280 275 277 268 263 261 260 257 259 259 265 271 271 273 275 273 274 272 273 274 275 274 276 275 281 282 284 283 288 289
297 290 286 283 282 279 282 286 288 290 290 296 298 303 298 293 292 280 274 272 273 265 265 269 264 264 269 271 276 273 271 273 272 273 271 272 270 272 274 276 280 282 281 285 287 290 292
299 293 284 284 281 278 280 281 283 287 291 296 299 301 301 291 292 277 270 271 273 275 272 271 272 271 275 276 283 275 279 278 278 274 273 275 274 272 276 276 277 280 283 289 291 289 286
299 293 287 281 280 280 279 283 287 287 293 298 301 299 299 294 287 275 275 267 274 267 271 275 272 273 276 278 276 281 279 284 281 284 281 280 277 274 274 276 280 283 289 289 288 284 278
295 293 289 283 279 280 278 283 286 288 296 302 299 297 297 292 276 266 262 267 271 266 267 271 272 273 271 274 277 278 280 282 285 287 284 281 280 278 277 276 279 281 290 290 285 279 269
294 293 289 290 285 282 284 282 288 293 298 300 299 295 294 285 270 262 263 263 266 267 266 272 271 273 273 273 275 276 280 282 282 286 280 281 280 281 279 278 285 288 289 282 277 275 256
291 291 291 290 286 286 286 286 288 294 294 296 295 295 289 272 266 263 260 263 265 263 263 263 262 269 266 272 275 275 279 283 283 283 277 276 278 280 284 287 292 291 280 275 271 260 242
289 289 291 288 286 285 287 290 294 294 297 297 295 293 279 265 261 262 262 263 264 262 264 265 268 266 270 275 276 275 281 279 280 278 274 276 279 282 287 292 292 283 274 271 262 246 224
288 287 286 288 287 287 290 292 293 295 298 297 294 287 273 262 259 259 259 259 260 261 260 265 266 265 268 272 274 276 279 278 277 271 272 276 277 282 289 291 285 277 272 265 247 240 207
285 285 285 289 294 291 291 291 292 295 296 295 291 281 269 260 260 255 255 256 258 258 260 261 264 265 265 268 273 274 276 277 275 274 274 275 281 285 291 280 274 272 264 251 230 220 197
283 284 289 293 293 292 290 292 294 294 295 290 281 273 269 262 259 255 253 254 255 255 257 257 261 265 267 269 269 271 273 275 275 277 275 278 282 288 276 275 278 268 253 228 214 205 198
286 288 292 292 292 291 293 294 293 294 291 286 277 270 266 260 259 258 257 258 256 256 258 254 256 257 262 264 264 268 272 272 276 280 280 281 281 276 262 263 263 247 225 212 208 198 193
287 290 290 290 290 290 291 291 292 289 286 280 278 270 266 262 256 254 254 255 254 256 255 255 253 255 260 262 263 266 270 273 272 275 280 277 277 261 250 258 237 230 218 206 201 191 181
286 288 289 288 290 292 291 291 289 287 284 280 278 275 272 265 261 259 257 256 255 250 251 255 254 256 258 261 262 263 269 272 272 274 269 269 264 247 240 235 213 207 202 203 199 185 190
287 289 290 290 290 291 289 288 286 284 283 281 279 279 275 275 270 263 259 259 255 253 254 257 255 256 257 259 261 263 264 264 266 265 263 264 260 231 232 216 206 202 198 203 197 185 189
289 289 289 289 290 288 287 286 285 284 283 281 280 278 275 274 272 270 267 264 259 254 254 255 256 256 255 258 261 258 259 256 256 257 257 259 249 227 225 213 209 204 203 203 198 190 191
288 288 288 288 287 286 285 286 285 284 283 282 281 278 277 275 271 268 265 260 257 255 254 255 257 255 253 255 256 256 254 253 254 255 252 247 242 219 220 214 207 207 205 206 201 194 192
285 285 286 285 285 285 286 286 286 285 284 283 282 278 275 272 270 269 266 261 258 256 255 255 256 253 253 253 253 253 251 249 248 248 244 244 230 217 217 216 210 207 201 207 203 200 200
283 284 284 284 286 287 287 287 287 286 286 285 281 276 273 272 272 271 267 263 258 256 257 252 250 251 250 250 249 249 248 247 248 243 238 236 229 220 217 213 210 209 202 205 199 208 208
284 284 284 286 286 287 288 289 288 288 286 283 279 275 275 275 272 269 265 260 254 253 257 253 250 246 246 247 245 244 242 239 239 239 234 228 225 221 216 213 212 209 206 206 205 201 210
281 282 284 285 287 289 289 289 288 288 285 280 277 276 278 275 272 267 262 257 254 250 250 246 243 242 244 245 243 243 238 236 233 233 231 223 217 218 216 213 209 209 209 204 209 206 207
281 282 283 286 288 288 288 289 288 286 284 283 281 279 279 276 271 268 264 256 254 248 247 244 240 237 242 243 244 242 237 232 229 227 223 218 213 215 215 212 209 210 210 208 208 211 214
281 283 285 288 287 289 289 288 286 286 286 284 281 279 276 273 273 267 259 253 251 249 247 244 239 237 236 237 236 233 231 226 221 221 220 218 214 215 215 211 210 214 213 215 212 212 216
282 284 286 287 290 289 288 286 285 285 285 284 281 278 273 269 267 259 251 250 250 248 243 237 238 238 237 235 233 232 228 222 218 218 218 214 212 215 214 210 212 214 213 212 215 213 214
283 285 287 290 289 287 285 285 286 286 284 282 279 273 268 268 261 253 246 249 248 242 241 235 232 230 229 224 223 226 225 220 220 218 215 214 214 213 210 208 212 215 214 214 217 215 215
284 286 290 288 286 285 285 285 285 283 281 280 277 273 269 265 260 249 245 240 234 229 229 222 222 225 225 224 221 219 217 217 218 218 215 215 215 213 210 205 213 215 213 213 213 211 216
284 289 288 285 284 284 284 283 282 281 279 276 273 271 265 258 250 242 235 229 225 220 221 219 219 217 217 217 218 219 218 216 217 216 214 213 215 213 211 207 210 217 217 214 212 218 221
286 286 283 282 282 282 282 281 280 277 275 272 269 262 252 239 236 227 222 217 212 210 211 214 212 214 211 209 211 212 213 213 216 214 213 214 212 213 214 207 208 217 218 214 215 219 222
283 281 280 280 279 279 278 275 272 272 271 265 265 260 249 231 231 227 221 216 213 208 210 212 211 208 208 206 208 209 208 211 214 216 212 214 213 213 215 209 210 216 218 219 218 222 222
Height
10675 10671 10668 10667 10664 10661 10659 10658 10656 10653 10650 10646 10644 10641 10638 10636 10635 10634 10634 10634 10635 10637 10639 10638 10638 10638 10639 10637 10639 10643 10638 10635 10638 10639 10635 10634 10632 10634 10634 10632 10628 10635 10632 10630 10631 10626 10618
10657 10653 10650 10647 10645 10644 10641 10638 10637 10635 10632 10627 10624 10622 10619 10617 10617 10617 10617 10618 10619 10622 10624 10624 10623 10622 10621 10620 10620 10625 10626 10620 10620 10621 10618 10616 10616 10616 10617 10615 10612 10611 10613 10614 10613 10604 10596
10639 10635 10632 10628 10625 10621 10619 10616 10613 10612 10609 10606 10602 10599 10599 10597 10597 10598 10598 10598 10602 10605 10606 10610 10607 10607 10605 10606 10603 10606 10607 10606 10604 10603 10600 10600 10598 10597 10600 10597 10596 10596 10595 10598 10593 10582 10579
10620 10616 10612 10608 10604 10599 10597 10593 10590 10588 10586 10581 10578 10576 10575 10573 10574 10576 10578 10581 10582 10586 10588 10590 10591 10591 10584 10591 10588 10587 10589 10587 10586 10584 10581 10580 10582 10584 10583 10583 10581 10580 10582 10579 10567 10566 10562
10598 10596 10591 10588 10584 10580 10576 10572 10569 10565 10559 10555 10553 10552 10549 10550 10554 10558 10563 10560 10563 10567 10571 10571 10575 10574 10569 10573 10571 10569 10572 10570 10567 10565 10563 10561 10564 10565 10563 10563 10564 10562 10566 10562 10553 10547 10549
10578 10573 10569 10565 10562 10559 10555 10550 10546 10541 10535 10534 10530 10528 10526 10526 10531 10535 10538 10540 10544 10548 10551 10553 10556 10555 10553 10554 10553 10550 10553 10552 10551 10550 10547 10546 10547 10546 10544 10543 10548 10547 10546 10542 10540 10529 10535
10555 10551 10546 10541 10537 10533 10531 10526 10523 10519 10516 10513 10510 10506 10502 10504 10506 10511 10518 10522 10523 10526 10529 10533 10538 10536 10534 10537 10535 10532 10535 10533 10532 10533 10533 10533 10531 10527 10529 10526 10531 10527 10525 10526 10523 10515 10532
10531 10528 10523 10519 10514 10509 10506 10502 10498 10495 10490 10485 10481 10478 10476 10479 10482 10487 10494 10499 10497 10504 10510 10510 10515 10518 10512 10521 10514 10513 10516 10516 10515 10516 10516 10517 10513 10513 10513 10511 10511 10510 10509 10511 10508 10507 10525
10507 10503 10498 10495 10487 10483 10479 10475 10471 10466 10463 10459 10457 10453 10452 10452 10455 10462 10469 10473 10475 10478 10492 10479 10493 10495 10493 10498 10496 10497 10498 10499 10500 10500 10500 10500 10497 10499 10500 10495 10495 10496 10495 10495 10497 10503 10521
10481 10476 10473 10467 10462 10457 10451 10447 10444 10440 10436 10433 10429 10425 10429 10428 10431 10437 10445 10448 10451 10458 10467 10469 10468 10472 10474 10475 10477 10478 10480 10480 10483 10483 10485 10486 10484 10485 10486 10482 10483 10481 10479 10483 10487 10498 10516
10454 10451 10446 10439 10434 10427 10424 10420 10418 10416 10411 10407 10406 10400 10402 10405 10404 10414 10420 10421 10427 10432 10444 10444 10448 10446 10451 10454 10457 10460 10463 10463 10466 10466 10469 10471 10470 10473 10473 10468 10471 10465 10469 10472 10480 10498 10508
10426 10422 10419 10413 10407 10402 10397 10393 10391 10389 10385 10381 10381 10376 10376 10384 10378 10390 10394 10400 10405 10410 10421 10423 10424 10426 10430 10433 10438 10437 10442 10444 10450 10449 10451 10456 10456 10461 10460 10459 10461 10458 10465 10469 10478 10495 10509
10400 10396 10391 10387 10383 10380 10375 10370 10368 10363 10359 10358 10357 10354 10352 10353 10355 10364 10366 10375 10382 10393 10387 10390 10401 10408 10409 10412 10420 10417 10421 10426 10433 10437 10436 10440 10445 10447 10449 10450 10453 10456 10460 10466 10475 10491 10502
10377 10373 10367 10362 10358 10353 10348 10344 10341 10338 10336 10334 10333 10330 10327 10323 10332 10341 10341 10350 10365 10371 10358 10357 10376 10388 10393 10389 10394 10399 10400 10406 10416 10422 10422 10424 10435 10435 10438 10443 10447 10452 10456 10462 10472 10488 10494
10353 10347 10341 10337 10332 10328 10324 10321 10318 10316 10314 10312 10308 10310 10294 10306 10308 10316 10318 10329 10342 10339 10334 10322 10346 10360 10364 10360 10370 10380 10386 10390 10401 10404 10406 10412 10421 10424 10428 10435 10440 10446 10452 10457 10468 10479 10486
10327 10322 10317 10312 10309 10304 10301 10299 10296 10294 10292 10290 10287 10284 10278 10280 10283 10289 10297 10308 10311 10304 10294 10300 10313 10333 10340 10339 10348 10358 10369 10378 10382 10388 10392 10401 10404 10413 10417 10425 10432 10439 10447 10454 10465 10476 10482
10303 10298 10295 10290 10286 10283 10280 10277 10273 10272 10270 10267 10266 10256 10256 10255 10258 10263 10272 10278 10278 10273 10269 10282 10291 10308 10311 10320 10325 10338 10350 10362 10368 10372 10379 10386 10393 10404 10407 10414 10423 10432 10441 10449 10459 10470 10475
10282 10278 10274 10270 10266 10262 10259 10255 10252 10249 10249 10247 10245 10234 10233 10232 10237 10241 10247 10254 10255 10250 10247 10268 10273 10284 10289 10300 10309 10316 10329 10339 10350 10358 10365 10372 10379 10389 10394 10404 10413 10424 10432 10441 10451 10461 10468
10263 10259 10254 10249 10246 10241 10238 10235 10231 10228 10228 10226 10223 10210 10211 10211 10218 10220 10225 10230 10234 10230 10224 10250 10256 10265 10268 10276 10289 10296 10313 10322 10330 10342 10351 10359 10367 10375 10382 10394 10404 10413 10422 10432 10441 10450 10461
10241 10236 10234 10230 10226 10221 10219 10214 10210 10209 10208 10207 10202 10192 10187 10198 10199 10203 10206 10207 10208 10210 10210 10231 10240 10245 10247 10254 10270 10277 10293 10304 10313 10322 10335 10345 10353 10360 10369 10379 10390 10401 10412 10422 10432 10445 10451
10224 10221 10217 10212 10208 10205 10199 10195 10191 10191 10188 10186 10182 10176 10174 10180 10178 10184 10186 10189 10188 10191 10195 10209 10221 10229 10229 10238 10252 10262 10279 10289 10303 10310 10320 10329 10336 10347 10356 10366 10380 10390 10400 10412 10425 10433 10444
10206 10204 10200 10197 10192 10189 10183 10177 10172 10172 10170 10167 10166 10161 10161 10159 10163 10167 10171 10172 10169 10175 10182 10193 10204 10210 10215 10229 10242 10253 10266 10277 10289 10297 10304 10310 10320 10331 10340 10352 10367 10379 10389 10401 10412 10423 10432
10190 10187 10183 10181 10176 10171 10165 10162 10158 10156 10152 10151 10151 10149 10146 10145 10150 10155 10155 10157 10156 10165 10173 10182 10189 10196 10203 10214 10229 10239 10250 10261 10271 10277 10286 10296 10309 10318 10325 10339 10354 10365 10375 10388 10398 10409 10420
10173 10170 10167 10164 10159 10154 10150 10146 10143 10142 10139 10137 10138 10136 10135 10135 10139 10143 10143 10145 10146 10155 10161 10168 10176 10187 10194 10208 10218 10228 10238 10246 10255 10263 10273 10283 10295 10304 10314 10328 10340 10348 10359 10372 10389 10398 10407
10158 10154 10151 10148 10143 10139 10135 10132 10130 10130 10128 10125 10127 10125 10125 10125 10128 10131 10132 10135 10143 10147 10151 10160 10168 10173 10184 10193 10204 10216 10225 10236 10243 10252 10262 10270 10282 10291 10300 10316 10325 10335 10355 10366 10377 10386 10396
10142 10139 10136 10133 10128 10125 10122 10120 10119 10118 10118 10116 10117 10115 10116 10118 10120 10121 10124 10129 10133 10138 10143 10150 10155 10164 10175 10184 10194 10203 10213 10221 10232 10241 10251 10260 10271 10282 10291 10306 10314 10327 10340 10353 10364 10374 10383
10126 10125 10121 10118 10115 10113 10111 10108 10108 10109 10109 10108 10108 10108 10108 10111 10111 10115 10118 10121 10126 10130 10135 10141 10148 10158 10167 10178 10186 10195 10205 10215 10222 10231 10242 10250 10259 10271 10278 10294 10304 10312 10326 10339 10350 10363 10370
10112 10111 10107 10105 10104 10101 10100 10099 10101 10101 10102 10101 10100 10099 10101 10103 10104 10108 10109 10113 10116 10120 10125 10132 10141 10149 10158 10167 10176 10187 10197 10207 10212 10222 10231 10240 10251 10258 10269 10286 10295 10299 10315 10328 10340 10349 10358
10099 10096 10095 10094 10092 10091 10091 10092 10093 10094 10094 10093 10093 10094 10096 10097 10100 10102 10105 10106 10110 10117 10123 10128 10136 10146 10152 10162 10170 10177 10188 10198 10206 10213 10225 10232 10239 10250 10260 10270 10277 10287 10301 10316 10330 10337 10342